| time (UTC) | temp C | wind direction | speed KPH | gust KPH | rain 1hr cm | rain 24hr cm | rain mn cm | humidity % | barometer mb |
| 20260508024105 | 6 | 133 | 0.0 | 0.0 | 0.00 | 0.00 | 0.00 | 88 | 1017.8 |
| 20260508023105 | 6 | 133 | 0.0 | 0.0 | 0.00 | 0.00 | 0.00 | 88 | 1017.9 |
| 20260508021105 | 6 | 133 | 0.0 | 0.0 | 0.00 | 0.00 | 0.00 | 88 | 1017.9 |
| 20260508020605 | 6 | 133 | 0.0 | 0.0 | 0.00 | 0.00 | 0.00 | 88 | 1017.8 |
| 20260508020105 | 7 | 133 | 0.0 | 0.0 | 0.00 | 0.00 | 0.00 | 88 | 1017.8 |
| 20260508015105 | 7 | 133 | 0.0 | 0.0 | 0.00 | 0.00 | 0.00 | 88 | 1017.8 |
| 20260508014105 | 7 | 133 | 0.0 | 0.0 | 0.00 | 0.00 | 0.00 | 88 | 1017.9 |
| 20260508013605 | 7 | 133 | 0.0 | 0.0 | 0.00 | 0.00 | 0.00 | 88 | 1017.9 |
| 20260508013105 | 7 | 133 | 0.0 | 0.0 | 0.00 | 0.00 | 0.00 | 88 | 1017.9 |
| 20260508011105 | 8 | 133 | 0.0 | 0.0 | 0.00 | 0.00 | 0.00 | 88 | 1017.8 |
| 20260508010605 | 8 | 133 | 0.0 | 0.0 | 0.00 | 0.00 | 0.00 | 88 | 1017.8 |
| 20260508005605 | 8 | 133 | 0.0 | 0.0 | 0.00 | 0.00 | 0.00 | 88 | 1017.8 |
| 20260508005106 | 8 | 133 | 0.0 | 0.0 | 0.00 | 0.00 | 0.00 | 88 | 1017.9 |
| 20260508004605 | 8 | 133 | 0.0 | 0.0 | 0.00 | 0.00 | 0.00 | 88 | 1017.9 |
| 20260508003605 | 8 | 133 | 0.0 | 0.0 | 0.00 | 0.00 | 0.00 | 88 | 1017.9 |
| 20260508003105 | 8 | 133 | 0.0 | 0.0 | 0.00 | 0.00 | 0.00 | 88 | 1017.9 |
| 20260508002604 | 8 | 133 | 0.0 | 0.0 | 0.00 | 0.00 | 0.00 | 88 | 1018.0 |
| 20260508002105 | 8 | 133 | 0.0 | 0.0 | 0.00 | 0.00 | 0.00 | 88 | 1018.0 |
| 20260508001605 | 8 | 133 | 0.0 | 0.0 | 0.00 | 0.00 | 0.00 | 88 | 1017.9 |
| 20260508001105 | 8 | 133 | 0.0 | 0.0 | 0.00 | 0.00 | 0.00 | 88 | 1018.0 |
| 20260507235606 | 8 | 133 | 0.0 | 0.0 | 0.00 | 0.00 | 0.00 | 88 | 1018.1 |
| 20260507234105 | 8 | 133 | 0.0 | 0.0 | 0.00 | 0.00 | 0.00 | 88 | 1018.2 |
| 20260507233605 | 8 | 133 | 0.0 | 0.0 | 0.00 | 0.00 | 0.00 | 88 | 1018.3 |
| 20260507232605 | 8 | 133 | 0.0 | 3.2 | 0.00 | 0.00 | 0.00 | 87 | 1018.3 |
| 20260507231105 | 8 | 133 | 0.0 | 1.6 | 0.00 | 0.00 | 0.00 | 87 | 1018.4 |
| 20260507230605 | 8 | 133 | 0.0 | 1.6 | 0.00 | 0.00 | 0.00 | 87 | 1018.4 |
| 20260507225605 | 8 | 133 | 0.0 | 0.0 | 0.00 | 0.00 | 0.00 | 87 | 1018.5 |
| 20260507223605 | 8 | 133 | 0.0 | 0.0 | 0.00 | 0.00 | 0.00 | 86 | 1018.5 |
| 20260507222605 | 9 | 133 | 0.0 | 0.0 | 0.00 | 0.00 | 0.00 | 86 | 1018.4 |
| 20260507222105 | 9 | 133 | 0.0 | 0.0 | 0.00 | 0.00 | 0.00 | 86 | 1018.5 |
| 20260507221605 | 9 | 133 | 0.0 | 0.0 | 0.00 | 0.00 | 0.00 | 86 | 1018.5 |
| 20260507221105 | 9 | 133 | 0.0 | 0.0 | 0.00 | 0.00 | 0.00 | 86 | 1018.5 |
| 20260507220605 | 9 | 133 | 0.0 | 1.6 | 0.00 | 0.00 | 0.00 | 86 | 1018.5 |
| 20260507220105 | 9 | 133 | 0.0 | 1.6 | 0.00 | 0.00 | 0.00 | 86 | 1018.5 |
| 20260507214605 | 9 | 133 | 0.0 | 1.6 | 0.00 | 0.00 | 0.00 | 85 | 1018.6 |
| 20260507213105 | 9 | 133 | 0.0 | 0.0 | 0.00 | 0.00 | 0.00 | 85 | 1018.6 |
| 20260507211605 | 9 | 133 | 0.0 | 0.0 | 0.00 | 0.00 | 0.00 | 85 | 1018.6 |
| 20260507211105 | 9 | 133 | 0.0 | 0.0 | 0.00 | 0.00 | 0.00 | 84 | 1018.6 |
| 20260507210605 | 9 | 133 | 0.0 | 4.8 | 0.00 | 0.00 | 0.00 | 84 | 1018.5 |
| 20260507210105 | 9 | 134 | 0.0 | 3.2 | 0.00 | 0.00 | 0.00 | 84 | 1018.5 |
| 20260507205106 | 9 | 134 | 0.0 | 3.2 | 0.00 | 0.00 | 0.00 | 84 | 1018.4 |
| 20260507204105 | 10 | 134 | 0.0 | 3.2 | 0.00 | 0.00 | 0.00 | 84 | 1018.3 |
| 20260507203605 | 10 | 134 | 0.0 | 4.8 | 0.00 | 0.00 | 0.00 | 84 | 1018.2 |
| 20260507203105 | 10 | 158 | 0.0 | 1.6 | 0.00 | 0.00 | 0.00 | 84 | 1018.2 |
| 20260507201605 | 10 | 104 | 1.6 | 4.8 | 0.00 | 0.00 | 0.00 | 83 | 1018.0 |
| 20260507201105 | 10 | 160 | 0.0 | 4.8 | 0.00 | 0.00 | 0.00 | 83 | 1018.0 |
| 20260507194605 | 10 | 167 | 0.0 | 4.8 | 0.00 | 0.00 | 0.00 | 82 | 1017.8 |
| 20260507194105 | 10 | 126 | 3.2 | 8.0 | 0.00 | 0.00 | 0.00 | 82 | 1017.8 |
| 20260507193605 | 10 | 166 | 0.0 | 8.0 | 0.00 | 0.00 | 0.00 | 82 | 1017.8 |
| 20260507192605 | 10 | 118 | 1.6 | 8.0 | 0.00 | 0.00 | 0.00 | 82 | 1017.8 |
| 20260507191605 | 10 | 131 | 0.0 | 3.2 | 0.00 | 0.00 | 0.00 | 81 | 1017.8 |
| 20260507190105 | 10 | 160 | 0.0 | 4.8 | 0.00 | 0.00 | 0.00 | 81 | 1017.8 |
| 20260507185106 | 10 | 118 | 1.6 | 4.8 | 0.00 | 0.00 | 0.00 | 81 | 1017.8 |
| 20260507184105 | 10 | 137 | 1.6 | 4.8 | 0.00 | 0.00 | 0.00 | 80 | 1017.8 |
| 20260507182605 | 10 | 118 | 0.0 | 3.2 | 0.00 | 0.00 | 0.00 | 80 | 1017.7 |
| 20260507182105 | 10 | 118 | 0.0 | 4.8 | 0.00 | 0.00 | 0.00 | 80 | 1017.6 |
| 20260507181605 | 10 | 120 | 0.0 | 3.2 | 0.00 | 0.00 | 0.00 | 80 | 1017.6 |
| 20260507181105 | 10 | 120 | 0.0 | 4.8 | 0.00 | 0.00 | 0.00 | 79 | 1017.6 |
| 20260507180605 | 11 | 141 | 1.6 | 8.0 | 0.00 | 0.00 | 0.00 | 79 | 1017.6 |
| 20260507180105 | 11 | 143 | 1.6 | 4.8 | 0.00 | 0.00 | 0.00 | 79 | 1017.5 |
| 20260507174105 | 11 | 84 | 1.6 | 4.8 | 0.00 | 0.00 | 0.00 | 78 | 1017.6 |
| 20260507173605 | 11 | 105 | 1.6 | 8.0 | 0.00 | 0.00 | 0.00 | 78 | 1017.5 |
| 20260507172605 | 11 | 117 | 0.0 | 4.8 | 0.00 | 0.00 | 0.00 | 77 | 1017.5 |
| 20260507172105 | 11 | 117 | 1.6 | 4.8 | 0.00 | 0.00 | 0.00 | 77 | 1017.5 |
| 20260507165105 | 11 | 119 | 1.6 | 11.3 | 0.00 | 0.00 | 0.00 | 77 | 1017.4 |
| 20260507164105 | 11 | 164 | 3.2 | 14.5 | 0.00 | 0.00 | 0.00 | 77 | 1017.4 |
| 20260507160605 | 11 | 56 | 3.2 | 14.5 | 0.00 | 0.00 | 0.00 | 75 | 1017.5 |
| 20260507160105 | 11 | 94 | 3.2 | 12.9 | 0.00 | 0.00 | 0.00 | 75 | 1017.5 |
| 20260507155605 | 11 | 105 | 3.2 | 11.3 | 0.00 | 0.00 | 0.00 | 75 | 1017.4 |
| 20260507155105 | 12 | 131 | 3.2 | 12.9 | 0.00 | 0.00 | 0.00 | 75 | 1017.5 |
| 20260507154105 | 12 | 127 | 3.2 | 12.9 | 0.00 | 0.00 | 0.00 | 74 | 1017.5 |
| 20260507152105 | 12 | 81 | 1.6 | 14.5 | 0.00 | 0.00 | 0.00 | 74 | 1017.5 |
| 20260507151605 | 12 | 87 | 1.6 | 9.7 | 0.00 | 0.00 | 0.00 | 73 | 1017.5 |
| 20260507151105 | 12 | 72 | 0.0 | 4.8 | 0.00 | 0.00 | 0.00 | 73 | 1017.5 |
| 20260507150605 | 12 | 109 | 1.6 | 11.3 | 0.00 | 0.00 | 0.00 | 72 | 1017.5 |
| 20260507145605 | 12 | 94 | 0.0 | 4.8 | 0.00 | 0.00 | 0.00 | 72 | 1017.4 |
| 20260507145105 | 12 | 69 | 1.6 | 11.3 | 0.00 | 0.00 | 0.00 | 71 | 1017.4 |
| 20260507143605 | 13 | 82 | 1.6 | 11.3 | 0.00 | 0.03 | 0.00 | 70 | 1017.4 |
| 20260507143105 | 13 | 137 | 0.0 | 4.8 | 0.00 | 0.03 | 0.00 | 69 | 1017.4 |
| 20260507142105 | 13 | 73 | 1.6 | 4.8 | 0.00 | 0.03 | 0.00 | 70 | 1017.4 |
| 20260507141605 | 13 | 94 | 1.6 | 4.8 | 0.00 | 0.03 | 0.00 | 71 | 1017.5 |
| 20260507140605 | 13 | 58 | 3.2 | 9.7 | 0.00 | 0.03 | 0.00 | 70 | 1017.5 |
| 20260507134106 | 13 | 95 | 3.2 | 11.3 | 0.00 | 0.05 | 0.00 | 68 | 1017.8 |
| 20260507133105 | 15 | 114 | 3.2 | 8.0 | 0.00 | 0.05 | 0.00 | 68 | 1017.7 |
| 20260507132605 | 14 | 67 | 3.2 | 11.3 | 0.00 | 0.05 | 0.00 | 73 | 1017.7 |
| 20260507132105 | 13 | 77 | 1.6 | 4.8 | 0.00 | 0.05 | 0.00 | 75 | 1017.8 |
| 20260507131605 | 12 | 84 | 1.6 | 11.3 | 0.00 | 0.05 | 0.00 | 73 | 1017.8 |
| 20260507131105 | 12 | 36 | 1.6 | 11.3 | 0.00 | 0.05 | 0.00 | 73 | 1017.8 |
| 20260507124605 | 13 | 25 | 0.0 | 4.8 | 0.00 | 0.05 | 0.00 | 72 | 1017.8 |
| 20260507124105 | 13 | 355 | 0.0 | 1.6 | 0.00 | 0.05 | 0.00 | 70 | 1017.7 |
| 20260507122105 | 13 | 76 | 1.6 | 4.8 | 0.00 | 0.05 | 0.00 | 70 | 1017.7 |
| 20260507121605 | 13 | 312 | 0.0 | 3.2 | 0.00 | 0.05 | 0.00 | 70 | 1017.8 |
| 20260507121105 | 13 | 312 | 0.0 | 1.6 | 0.00 | 0.05 | 0.00 | 72 | 1017.9 |
| 20260507115105 | 12 | 312 | 3.2 | 4.8 | 0.00 | 0.05 | 0.00 | 71 | 1018.0 |
| 20260507114605 | 13 | 58 | 0.0 | 3.2 | 0.00 | 0.05 | 0.00 | 70 | 1018.0 |
| 20260507111605 | 12 | 81 | 0.0 | 4.8 | 0.00 | 0.13 | 0.00 | 74 | 1018.1 |
| 20260507111105 | 12 | 76 | 1.6 | 4.8 | 0.00 | 0.15 | 0.00 | 75 | 1018.2 |
| 20260507104104 | 11 | 120 | 0.0 | 0.0 | 0.00 | 0.20 | 0.00 | 74 | 1018.2 |
| 20260507103105 | 12 | 132 | 1.6 | 8.0 | 0.00 | 0.23 | 0.00 | 75 | 1018.2 |
| 20260507101105 | 11 | 64 | 3.2 | 4.8 | 0.00 | 0.25 | 0.00 | 77 | 1018.2 |
| 20260507100105 | 11 | 70 | 1.6 | 4.8 | 0.00 | 0.25 | 0.00 | 76 | 1018.1 |
| 20260507095105 | 11 | 69 | 0.0 | 1.6 | 0.00 | 0.25 | 0.00 | 76 | 1018.1 |
| 20260507092605 | 11 | 62 | 0.0 | 1.6 | 0.00 | 0.25 | 0.00 | 77 | 1018.1 |
| 20260507092105 | 11 | 62 | 0.0 | 4.8 | 0.00 | 0.25 | 0.00 | 77 | 1018.0 |
| 20260507090105 | 10 | 52 | 0.0 | 1.6 | 0.00 | 0.25 | 0.00 | 78 | 1018.0 |
| 20260507085605 | 10 | 52 | 1.6 | 4.8 | 0.00 | 0.25 | 0.00 | 79 | 1018.1 |
| 20260507085105 | 10 | 24 | 0.0 | 0.0 | 0.00 | 0.25 | 0.00 | 78 | 1018.0 |
| 20260507084605 | 10 | 24 | 0.0 | 0.0 | 0.00 | 0.25 | 0.00 | 78 | 1018.1 |
| 20260507082605 | 10 | 24 | 0.0 | 1.6 | 0.00 | 0.28 | 0.00 | 79 | 1018.0 |
| 20260507082105 | 10 | 24 | 0.0 | 0.0 | 0.00 | 0.28 | 0.00 | 80 | 1018.0 |
| 20260507081105 | 10 | 338 | 0.0 | 1.6 | 0.00 | 0.28 | 0.00 | 79 | 1017.9 |
| 20260507075605 | 10 | 106 | 0.0 | 1.6 | 0.00 | 0.28 | 0.00 | 81 | 1017.8 |
| 20260507075105 | 9 | 106 | 0.0 | 4.8 | 0.00 | 0.28 | 0.00 | 82 | 1017.8 |
| 20260507074604 | 9 | 106 | 0.0 | 1.6 | 0.00 | 0.28 | 0.00 | 82 | 1017.8 |
| 20260507074105 | 9 | 128 | 0.0 | 1.6 | 0.00 | 0.28 | 0.00 | 82 | 1017.7 |
| 20260507073605 | 9 | 133 | 0.0 | 3.2 | 0.00 | 0.28 | 0.00 | 83 | 1017.7 |
| 20260507072605 | 9 | 143 | 0.0 | 0.0 | 0.00 | 0.33 | 0.00 | 83 | 1017.5 |
| 20260507071104 | 8 | 143 | 0.0 | 3.2 | 0.00 | 0.41 | 0.00 | 85 | 1017.5 |
| 20260507070605 | 8 | 143 | 0.0 | 3.2 | 0.00 | 0.41 | 0.00 | 85 | 1017.5 |
| 20260507064605 | 8 | 147 | 0.0 | 0.0 | 0.00 | 0.43 | 0.00 | 88 | 1017.5 |
| 20260507063105 | 8 | 147 | 0.0 | 0.0 | 0.00 | 0.43 | 0.00 | 90 | 1017.5 |
| 20260507061105 | 7 | 147 | 0.0 | 0.0 | 0.00 | 0.58 | 0.00 | 90 | 1017.4 |
| 20260507060105 | 7 | 147 | 0.0 | 0.0 | 0.00 | 0.66 | 0.00 | 91 | 1017.3 |
| 20260507052605 | 6 | 243 | 0.0 | 0.0 | 0.00 | 0.76 | 0.00 | 91 | 1017.0 |
| 20260507051605 | 6 | 243 | 0.0 | 0.0 | 0.00 | 0.76 | 0.00 | 91 | 1017.0 |
| 20260507051107 | 6 | 243 | 0.0 | 0.0 | 0.00 | 0.76 | 0.00 | 91 | 1017.0 |
| 20260507050105 | 6 | 243 | 0.0 | 0.0 | 0.00 | 0.76 | 0.00 | 91 | 1017.0 |
| 20260507045605 | 6 | 243 | 0.0 | 0.0 | 0.00 | 0.76 | 0.00 | 91 | 1017.0 |
| 20260507045105 | 6 | 243 | 0.0 | 0.0 | 0.00 | 0.76 | 0.00 | 91 | 1016.9 |
| 20260507044105 | 6 | 243 | 0.0 | 0.0 | 0.00 | 0.76 | 0.00 | 91 | 1016.9 |
| 20260507043605 | 6 | 243 | 0.0 | 0.0 | 0.00 | 0.76 | 0.00 | 90 | 1016.9 |
| 20260507042605 | 6 | 46 | 0.0 | 0.0 | 0.00 | 0.76 | 0.00 | 90 | 1016.8 |
| 20260507040605 | 6 | 46 | 0.0 | 0.0 | 0.00 | 0.76 | 0.00 | 90 | 1016.8 |
| 20260507040105 | 6 | 46 | 0.0 | 0.0 | 0.00 | 0.76 | 0.00 | 90 | 1016.6 |
| 20260507035605 | 6 | 46 | 0.0 | 0.0 | 0.00 | 0.76 | 0.00 | 90 | 1016.6 |
| 20260507035104 | 6 | 46 | 0.0 | 0.0 | 0.00 | 0.76 | 0.00 | 90 | 1016.6 |
| 20260507034605 | 6 | 46 | 0.0 | 0.0 | 0.00 | 0.76 | 0.00 | 90 | 1016.5 |
| 20260507034105 | 6 | 46 | 0.0 | 0.0 | 0.00 | 0.76 | 0.00 | 90 | 1016.5 |
| 20260507025605 | 6 | 46 | 0.0 | 0.0 | 0.00 | 0.76 | 0.00 | 90 | 1016.4 |